Weather History for Salt Lake City, UT

Change the Weather History Date:

Saturday, August 23, 2014

  Actual Average Record
Temperature  
Mean Temperature 64 °F 75 °F  
Max Temperature 73 °F 89 °F 99 °F (1967)
Min Temperature 54 °F 62 °F 44 °F (1933)
Degree Days  
Heating Degree Days 1 0  
Month to date heating degree days 1 0  
Since 1 June heating degree days 40 48  
Since 1 July heating degree days 1 2  
Cooling Degree Days 0 11  
Month to date cooling degree days 250 300  
Year to date cooling degree days 1007 962  
Since 1 June cooling degree days 945 912  
Growing Degree Days 14 (Base 50)    
Moisture  
Dew Point 47 °F    
Average Humidity 59    
Maximum Humidity 86    
Minimum Humidity 31    
Precipitation  
Precipitation 0.08 in 0.02 in 0.45 in (1976)
Month to date precipitation 1.57 0.47  
Year to date precipitation 9.74 10.29  
Snow  
Snow 0.00 in 0.00 in - ()
Month to date snowfall 0.0 0.0  
Since 1 July snowfall 0.0 0.0  
Snow Depth 0.00 in    
Sea Level Pressure  
Sea Level Pressure 29.94 in    
Wind  
Wind Speed 9 mph (SE)    
Max Wind Speed 25 mph    
Max Gust Speed 30 mph    
Visibility 10 miles    
Events Rain , Thunderstorm    
T = Trace of Precipitation, MM = Missing Value Source: NWS Daily Summary

Daily Weather History Graph

Daily Weather History Graph

Search for Another Location

Airport:

Trip Planner

Search our weather history database for the weather conditions in past years. The results will help you decide how hot, cold, wet, or windy it might be!

Date:

Astronomy

Aug. 23, 2014 Rise Set
Actual Time 6:46 AM MDT 8:14 PM MDT
Civil Twilight 6:17 AM MDT 8:42 PM MDT
Nautical Twilight 5:42 AM MDT 9:17 PM MDT
Astronomical Twilight 5:05 AM MDT 9:53 PM MDT
Moon 5:05 AM MDT (8/23) 7:01 PM MDT (8/23)
Length of Visible Light 14h 25m
Length of Day
13h 28m
Waning Crescent, 3% of the Moon is Illuminated
Aug 23
Waning Crescent
Aug 25
New
Sep 2
First Quarter
Sep 8
Full
Sep 15
Last Quarter

Hourly Weather History & Observations

Time (MDT) Temp. Dew Point Humidity Pressure Visibility Wind Dir Wind Speed Gust Speed Precip Events Conditions
12:30 AM 60.1 °F 55.0 °F 83% 30.01 in 10.0 mi North 9.2 mph 20.7 mph N/A   Mostly Cloudy
12:53 AM 60.1 °F 53.1 °F 78% 29.86 in 10.0 mi NNE 9.2 mph - N/A   Mostly Cloudy
1:53 AM 60.1 °F 52.0 °F 75% 29.84 in 10.0 mi ESE 4.6 mph - N/A   Mostly Cloudy
2:53 AM 57.2 °F 51.8 °F 82% 30.01 in 10.0 mi Calm Calm - N/A Rain Light Rain
3:53 AM 57.0 °F 52.0 °F 83% 29.86 in 10.0 mi SE 15.0 mph - 0.00 in Rain Light Rain
4:09 AM 57.9 °F 53.1 °F 84% 29.98 in 10.0 mi SE 9.2 mph - 0.00 in   Mostly Cloudy
4:21 AM 57.9 °F 53.1 °F 84% 29.99 in 10.0 mi Calm Calm - 0.00 in Rain , Thunderstorm Light Thunderstorms and Rain
5:53 AM 55.4 °F 51.8 °F 88% 29.99 in 10.0 mi ESE 24.2 mph 29.9 mph N/A Rain , Thunderstorm Light Thunderstorms and Rain
6:09 AM 55.0 °F 50.0 °F 83% 30.00 in 10.0 mi ESE 13.8 mph - 0.00 in   Mostly Cloudy
6:53 AM 55.0 °F 48.0 °F 77% 29.93 in 10.0 mi SSW 6.9 mph - 0.00 in   Overcast
7:53 AM 55.0 °F 48.9 °F 80% 29.95 in 10.0 mi ESE 6.9 mph - N/A   Scattered Clouds
8:53 AM 57.0 °F 48.0 °F 72% 29.97 in 10.0 mi SSE 9.2 mph - N/A   Scattered Clouds
9:53 AM 60.1 °F 48.9 °F 67% 29.96 in 10.0 mi SSE 9.2 mph - N/A   Scattered Clouds
10:53 AM 64.0 °F 48.9 °F 58% 29.96 in 10.0 mi SSE 8.1 mph - N/A   Scattered Clouds
11:53 AM 64.9 °F 46.9 °F 52% 29.96 in 10.0 mi SW 4.6 mph - N/A   Scattered Clouds
12:53 PM 66.9 °F 48.0 °F 51% 29.94 in 10.0 mi Variable 6.9 mph - N/A   Mostly Cloudy
1:53 PM 69.1 °F 46.9 °F 45% 29.93 in 10.0 mi West 11.5 mph - N/A   Scattered Clouds
2:53 PM 71.1 °F 46.9 °F 42% 29.93 in 10.0 mi WNW 15.0 mph 20.7 mph N/A   Scattered Clouds
3:53 PM 71.1 °F 39.9 °F 32% 29.93 in 10.0 mi West 12.7 mph 23.0 mph N/A   Scattered Clouds
4:53 PM 72.0 °F 37.9 °F 29% 29.92 in 10.0 mi West 16.1 mph 21.9 mph N/A   Scattered Clouds
5:53 PM 72.0 °F 39.9 °F 31% 29.93 in 10.0 mi North 8.1 mph 18.4 mph N/A   Scattered Clouds
6:53 PM 71.1 °F 41.0 °F 34% 29.92 in 10.0 mi North 6.9 mph - N/A   Scattered Clouds
7:53 PM 69.1 °F 42.1 °F 38% 29.92 in 10.0 mi NNW 5.8 mph - N/A   Scattered Clouds
8:53 PM 64.9 °F 43.0 °F 45% 29.93 in 10.0 mi North 4.6 mph - N/A   Scattered Clouds
9:53 PM 64.0 °F 44.1 °F 48% 29.94 in 10.0 mi SE 4.6 mph - N/A   Partly Cloudy
10:53 PM 61.0 °F 46.0 °F 58% 29.95 in 10.0 mi South 5.8 mph - N/A   Partly Cloudy
11:53 PM 59.0 °F 43.0 °F 55% 29.95 in 10.0 mi SSE 6.9 mph - N/A   Clear